Regional Weather Roundup
Issued by NWS

Home | Current Version | Previous Version | Graphics & Text | Print | Product List | Glossary On
Versions: 1 2 3 4 5 6 7 8 9 10 11 12 13 14 15 16 17 18 19 20 21 22 23 24 25 26 27 28 29 30 31 32 33 34 35 36 37 38 39 40 41 42 43 44 45 46 47 48 49 50
000
ASUS45 KSLC 281010
RWRUT

UTAH REGIONAL WEATHER ROUNDUP
NATIONAL WEATHER SERVICE SALT LAKE CITY UT
300 AM MST SAT FEB 28 2015

UTZ001>011-023>025-281100-

NORTHERN UTAH

CITY           SKY/WX    TMP DP  RH WIND       PRES   REMARKS
BRIGHAM CITY   CLEAR     27  24  88 N6        29.69F WCI  20
HILL AFB       CLEAR     31  18  59 E14       29.67F WCI  20
LOGAN          CLEAR     23  21  92 CALM      29.72F
OGDEN          CLEAR     28  19  69 SW5       29.67S WCI  23
PROVO AIRPORT  CLEAR     25  19  80 NW9       29.69F WCI  15
SALT LAKE CITY PTCLDY    32  21  64 S9        29.68S WCI  24
VERNAL         CLOUDY    27  20  75 NW6       29.77S WCI  20
WENDOVER       CLOUDY    37  25  60 N6        29.65S WCI  33
HEBER CITY     CLEAR     18  16  93 CALM      29.72R
WEST JORDAN    CLEAR     27  21  80 CALM      29.69S

$$

UTZ012>022-026-027-281100-

SOUTHERN/CENTRAL UTAH

CITY           SKY/WX    TMP DP  RH WIND       PRES   REMARKS
BLANDING       CLOUDY    29  29  99 N5        29.80F WCI  24
BRYCE CANYON   LGT SNOW  24  22  91 CALM      29.65F FOG
CEDAR CITY     CLOUDY    33  30  88 SW12      29.58F WCI  24
DELTA          CLOUDY    33  21  61 NE9       29.60F WCI  26
HANKSVILLE     MOCLDY    34  32  93 E6        29.75F WCI  29
MILFORD        CLOUDY    29  17  61 N5        29.59S WCI  24
MOAB/CYNLANDS  CLEAR     30  23  75 E7        29.73F WCI  23
PRICE          CLOUDY    30  23  75 N5        29.73F WCI  25
ST GEORGE      CLOUDY    43  37  81 CALM      29.66S
KANAB          CLOUDY    32  32 100 N5        29.69F WCI  27

$$

REGIONAL REPORTS     COLORADO/ARIZONA

CITY           SKY/WX    TMP DP  RH WIND       PRES   REMARKS
CRAIG, CO      PTCLDY    18   9  68 E5        29.78S WCI  11
GRAND JUNCTION PTCLDY    26  21  81 E13       29.78S WCI  15
RIFLE          CLEAR     20  15  81 S3        29.80R
MONTROSE       CLEAR     14  10  84 SE8       29.81S WCI   3
CORTEZ         CLOUDY    29  27  92 NE5       29.76F WCI  24
PAGE, AZ       HVY RAIN  38  33  82 CALM      29.69S
GRAND CANYON   MOCLDY    35  29  78 S12       29.67F WCI  27
KINGMAN        CLEAR     49  34  56 SW18      29.64R
FLAGSTAFF      CLOUDY    36  31  82 SW23G33   29.70F WCI  24

$$

REGIONAL REPORTS    NEVADA/IDAHO/WYOMING

CITY           SKY/WX    TMP DP  RH WIND       PRES   REMARKS
LAS VEGAS, NV  PTCLDY    54  36  50 S15       29.53R
ELY            LGT SNOW  30  29  96 CALM      29.59F FOG
ELKO           FOG       31  31 100 SW3       29.60S VSB 1/2
POCATELLO, ID  CLEAR     20  19  96 NE8       29.74S WCI  10
BURLEY         CLOUDY    30  23  75 E15       29.69  WCI  19
EVANSTON, WY   CLEAR     16   8  71 SE8       29.69S WCI   5
ROCK SPRINGS   CLEAR     11   6  81 NE17      29.77S WCI  -6

$$



USA.gov is the U.S. government's official web portal to all federal, state and local government web resources and services.